When you browse on this site, cookies collect data to enhance your experience and personalize the content and advertising you see.
Visit our Privacy Policy to learn more. By continuing to use the site, you agree to this use of cookies and data.
  • In Österreich
  • Länderverzeichnis
  • Für 7 Tage
  • Wassertemperatur
  • Wetterkarte
  • News
  • Widgets
  • user-avatar
    Anmelden

    Stündliche Wetter Barisal

    Heute, 18 Februar, Dienstag

    Zeit Temperatur Niederschläge Wind Luftdruck Luftfeuchtigkeit
    00:00 +21°C° 0 mm 1 m/S 760 mmHg 58%
    01:00 +21°C° 0 mm 1 m/S 760 mmHg 57%
    02:00 +20°C° 0 mm 1 m/S 760 mmHg 56%
    03:00 +20°C° 0 mm 1 m/S 759 mmHg 55%
    04:00 +20°C° 0 mm 1 m/S 759 mmHg 53%
    05:00 +20°C° 0 mm 1 m/S 759 mmHg 50%
    06:00 +19°C° 0 mm 1 m/S 760 mmHg 58%
    07:00 +21°C° 0 mm 1 m/S 760 mmHg 52%
    08:00 +24°C° 0 mm 1 m/S 760 mmHg 46%
    09:00 +24°C° 0 mm 0 m/S 761 mmHg 40%
    10:00 +28°C° 0 mm 1 m/S 761 mmHg 35%
    11:00 +30°C° 0 mm 1 m/S 760 mmHg 30%
    12:00 +31°C° 0 mm 1 m/S 761 mmHg 26%
    13:00 +32°C° 0 mm 1 m/S 760 mmHg 25%
    14:00 +32°C° 0 mm 2 m/S 759 mmHg 24%
    15:00 +32°C° 0 mm 2 m/S 758 mmHg 22%
    16:00 +30°C° 0 mm 3 m/S 758 mmHg 31%
    17:00 +28°C° 0 mm 3 m/S 758 mmHg 40%
    18:00 +26°C° 0 mm 4 m/S 758 mmHg 49%
    19:00 +25°C° 0 mm 3 m/S 759 mmHg 58%
    20:00 +24°C° 0 mm 3 m/S 759 mmHg 66%
    21:00 +21°C° 0 mm 2 m/S 760 mmHg 75%
    22:00 +21°C° 0 mm 2 m/S 760 mmHg 78%
    23:00 +20°C° 0 mm 2 m/S 760 mmHg 80%

    Morgen, 19 Februar, Mittwoch

    Zeit Temperatur Niederschläge Wind Luftdruck Luftfeuchtigkeit
    00:00 +20°C° 0 mm 2 m/S 760 mmHg 83%
    01:00 +20°C° 0 mm 1 m/S 760 mmHg 83%
    02:00 +20°C° 0 mm 1 m/S 759 mmHg 84%
    03:00 +20°C° 0 mm 1 m/S 759 mmHg 84%
    04:00 +19°C° 0 mm 1 m/S 759 mmHg 83%
    05:00 +18°C° 0 mm 2 m/S 759 mmHg 83%
    06:00 +18°C° 0 mm 2 m/S 759 mmHg 82%
    07:00 +21°C° 0 mm 1 m/S 760 mmHg 71%
    08:00 +23°C° 0 mm 1 m/S 761 mmHg 61%
    09:00 +26°C° 0 mm 1 m/S 761 mmHg 50%
    10:00 +28°C° 0 mm 1 m/S 761 mmHg 42%
    11:00 +30°C° 0 mm 1 m/S 761 mmHg 33%
    12:00 +33°C° 0 mm 1 m/S 761 mmHg 25%
    13:00 +33°C° 0 mm 1 m/S 760 mmHg 24%
    14:00 +34°C° 0 mm 2 m/S 759 mmHg 23%
    15:00 +34°C° 0 mm 2 m/S 759 mmHg 22%
    16:00 +31°C° 0 mm 3 m/S 759 mmHg 30%
    17:00 +28°C° 0 mm 3 m/S 759 mmHg 38%
    18:00 +26°C° 0 mm 4 m/S 759 mmHg 46%
    19:00 +25°C° 0 mm 3 m/S 759 mmHg 54%
    20:00 +24°C° 0 mm 3 m/S 760 mmHg 61%
    21:00 +21°C° 0 mm 2 m/S 760 mmHg 69%
    22:00 +21°C° 0 mm 2 m/S 760 mmHg 71%
    23:00 +21°C° 0 mm 2 m/S 760 mmHg 73%

    übermorgen, 20 Februar, Donnerstag

    Zeit Temperatur Niederschläge Wind Luftdruck Luftfeuchtigkeit
    00:00 +20°C° 0 mm 2 m/S 760 mmHg 75%
    01:00 +20°C° 0 mm 2 m/S 760 mmHg 76%
    02:00 +20°C° 0 mm 2 m/S 760 mmHg 77%
    03:00 +19°C° 0 mm 2 m/S 760 mmHg 78%
    04:00 +19°C° 0 mm 2 m/S 760 mmHg 80%
    05:00 +20°C° 0 mm 1 m/S 760 mmHg 82%
    06:00 +19°C° 0 mm 1 m/S 760 mmHg 84%
    07:00 +21°C° 0 mm 1 m/S 761 mmHg 74%
    08:00 +23°C° 0 mm 1 m/S 761 mmHg 65%
    09:00 +26°C° 0 mm 1 m/S 762 mmHg 56%
    10:00 +28°C° 0 mm 1 m/S 762 mmHg 47%
    11:00 +28°C° 0 mm 0 m/S 761 mmHg 38%
    12:00 +31°C° 0 mm 0 m/S 761 mmHg 29%
    13:00 +33°C° 0 mm 1 m/S 760 mmHg 27%
    14:00 +33°C° 0 mm 1 m/S 760 mmHg 25%
    15:00 +34°C° 0 mm 1 m/S 759 mmHg 23%
    16:00 +31°C° 0 mm 2 m/S 759 mmHg 31%
    17:00 +29°C° 0 mm 3 m/S 759 mmHg 38%
    18:00 +27°C° 0 mm 4 m/S 759 mmHg 46%
    19:00 +26°C° 0 mm 3 m/S 759 mmHg 54%
    20:00 +24°C° 0 mm 3 m/S 760 mmHg 62%
    21:00 +23°C° 0 mm 2 m/S 760 mmHg 69%
    22:00 +23°C° 0 mm 2 m/S 760 mmHg 70%
    23:00 +23°C° 0 mm 2 m/S 760 mmHg 70%

    21 Februar, Freitag

    Zeit Temperatur Niederschläge Wind Luftdruck Luftfeuchtigkeit
    00:00 +21°C° 0 mm 2 m/S 760 mmHg 71%
    01:00 +21°C° 0 mm 2 m/S 760 mmHg 70%
    02:00 +21°C° 0 mm 2 m/S 760 mmHg 69%
    03:00 +21°C° 0 mm 1 m/S 760 mmHg 68%
    04:00 +21°C° 0 mm 1 m/S 760 mmHg 69%
    05:00 +21°C° 0 mm 1 m/S 760 mmHg 70%
    06:00 +20°C° 0 mm 1 m/S 760 mmHg 70%
    07:00 +22°C° 0 mm 1 m/S 761 mmHg 63%
    08:00 +24°C° 0 mm 2 m/S 762 mmHg 55%
    09:00 +26°C° 0 mm 2 m/S 763 mmHg 48%
    10:00 +29°C° 0 mm 1 m/S 762 mmHg 41%
    11:00 +31°C° 0 mm 1 m/S 762 mmHg 35%
    12:00 +33°C° 0 mm 1 m/S 762 mmHg 28%
    19:00 +27°C° 0 mm 2 m/S 761 mmHg 41%
    20:00 +26°C° 0 mm 2 m/S 761 mmHg 46%
    21:00 +24°C° 0 mm 2 m/S 762 mmHg 51%
    22:00 +24°C° 0 mm 2 m/S 762 mmHg 52%
    23:00 +23°C° 0 mm 2 m/S 761 mmHg 53%

    22 Februar, Samstag

    Zeit Temperatur Niederschläge Wind Luftdruck Luftfeuchtigkeit
    00:00 +23°C° 0 mm 2 m/S 761 mmHg 55%
    01:00 +23°C° 0 mm 2 m/S 761 mmHg 55%
    02:00 +21°C° 0 mm 2 m/S 761 mmHg 56%
    03:00 +21°C° 0 mm 2 m/S 761 mmHg 56%
    04:00 +20°C° 0 mm 2 m/S 761 mmHg 56%
    05:00 +20°C° 0 mm 2 m/S 761 mmHg 56%
    06:00 +21°C° 0 mm 1 m/S 761 mmHg 56%
    07:00 +23°C° 0 mm 2 m/S 762 mmHg 50%
    08:00 +26°C° 0 mm 2 m/S 762 mmHg 43%
    09:00 +28°C° 0 mm 2 m/S 763 mmHg 37%
    10:00 +30°C° 0 mm 2 m/S 763 mmHg 32%
    11:00 +33°C° 0 mm 3 m/S 762 mmHg 27%
    12:00 +36°C° 0 mm 3 m/S 762 mmHg 22%
    13:00 +36°C° 0 mm 3 m/S 761 mmHg 20%
    14:00 +37°C° 0 mm 3 m/S 760 mmHg 19%
    15:00 +37°C° 0 mm 4 m/S 759 mmHg 18%
    16:00 +35°C° 0 mm 3 m/S 759 mmHg 23%
    17:00 +33°C° 0 mm 3 m/S 759 mmHg 27%
    18:00 +29°C° 0 mm 2 m/S 759 mmHg 31%
    19:00 +28°C° 0 mm 2 m/S 760 mmHg 36%
    20:00 +26°C° 0 mm 2 m/S 760 mmHg 42%
    21:00 +25°C° 0 mm 2 m/S 761 mmHg 47%
    22:00 +24°C° 0 mm 2 m/S 761 mmHg 49%
    23:00 +24°C° 0 mm 2 m/S 761 mmHg 51%

    23 Februar, Sonntag

    Zeit Temperatur Niederschläge Wind Luftdruck Luftfeuchtigkeit
    00:00 +23°C° 0 mm 2 m/S 761 mmHg 54%
    01:00 +23°C° 0 mm 2 m/S 760 mmHg 55%
    02:00 +21°C° 0 mm 2 m/S 760 mmHg 56%
    03:00 +22°C° 0 mm 1 m/S 760 mmHg 57%
    04:00 +22°C° 0 mm 1 m/S 760 mmHg 57%
    05:00 +21°C° 0 mm 1 m/S 760 mmHg 58%
    06:00 +21°C° 0 mm 1 m/S 760 mmHg 58%
    07:00 +24°C° 0 mm 1 m/S 761 mmHg 51%
    08:00 +26°C° 0 mm 1 m/S 761 mmHg 44%
    09:00 +29°C° 0 mm 1 m/S 762 mmHg 37%
    10:00 +31°C° 0 mm 1 m/S 761 mmHg 32%
    11:00 +33°C° 0 mm 1 m/S 761 mmHg 27%
    12:00 +34°C° 0 mm 0 m/S 761 mmHg 22%
    13:00 +34°C° 0 mm 0 m/S 760 mmHg 21%
    14:00 +36°C° 0 mm 1 m/S 759 mmHg 20%
    15:00 +36°C° 0 mm 1 m/S 758 mmHg 19%
    16:00 +35°C° 0 mm 2 m/S 758 mmHg 24%
    17:00 +32°C° 0 mm 2 m/S 758 mmHg 28%
    18:00 +30°C° 0 mm 3 m/S 758 mmHg 33%
    19:00 +28°C° 0 mm 3 m/S 758 mmHg 37%
    20:00 +27°C° 0 mm 3 m/S 759 mmHg 40%
    21:00 +26°C° 0 mm 3 m/S 759 mmHg 44%
    22:00 +25°C° 0 mm 3 m/S 759 mmHg 47%
    23:00 +24°C° 0 mm 3 m/S 759 mmHg 51%
    Mehr zeigen